Weather History for Salida, CO

Change the Weather History Date:

Tuesday, March 11, 2014

  Actual Average (KGUC) Record (KGUC)
Temperature  
Mean Temperature 38 °F -  
Max Temperature 49 °F 38 °F 51 °F (2003)
Min Temperature 27 °F 13 °F -2 °F (1997)
Degree Days  
Heating Degree Days 26    
Moisture  
Dew Point 13 °F    
Average Humidity 37    
Maximum Humidity 76    
Minimum Humidity 16    
Precipitation  
Precipitation 0.00 in - - ()
Sea Level Pressure  
Sea Level Pressure 30.04 in    
Wind  
Wind Speed 13 mph (West)    
Max Wind Speed 28 mph    
Max Gust Speed 38 mph    
Visibility 10 miles    
Events      
Averages and records for this station are not official NWS values.
T = Trace of Precipitation, MM = Missing Value Source: NWS Daily Summary

Daily Weather History Graph

Daily Weather History Graph

Search for Another Location

Airport:

Trip Planner

Search our weather history database for the weather conditions in past years. The results will help you decide how hot, cold, wet, or windy it might be!

Date:

Astronomy

Mar. 11, 2014 Rise Set
Actual Time 7:21 AM MDT 7:07 PM MDT
Civil Twilight 6:55 AM MDT 7:33 PM MDT
Nautical Twilight 6:24 AM MDT 8:04 PM MDT
Astronomical Twilight 5:53 AM MDT 8:35 PM MDT
Moon 2:48 PM MDT (3/11) 4:14 AM MDT (3/11)
Length of Visible Light 12h 38m
Length of Day
11h 45m
Waxing Gibbous, 78% of the Moon is Illuminated
Mar 11
Waxing Gibbous
Mar 16
Full
Mar 23
Last Quarter
Mar 30
New
Apr 7
First Quarter

Hourly Weather History & Observations

Time (MDT) Temp. Windchill Dew Point Humidity Pressure Visibility Wind Dir Wind Speed Gust Speed Precip Events Conditions
12:15 AM 46.0 °F 43.1 °F 3.9 °F 18% 29.88 in 10.0 mi WSW 5.8 mph - N/A   Clear
12:35 AM 47.3 °F - 3.4 °F 16% 29.87 in 10.0 mi South 6.9 mph - N/A   Clear
12:55 AM 47.5 °F - 4.1 °F 17% 29.87 in 10.0 mi WSW 5.8 mph - N/A   Clear
1:15 AM 47.1 °F - 4.5 °F 17% 29.86 in 10.0 mi West 5.8 mph - N/A   Clear
1:35 AM 46.6 °F - 5.5 °F 19% 29.86 in 10.0 mi West 5.8 mph - N/A   Clear
1:55 AM 48.6 °F - 5.7 °F 17% 29.85 in 10.0 mi West 9.2 mph 19.6 mph N/A   Clear
2:15 AM 49.1 °F - 6.6 °F 18% 29.85 in 10.0 mi West 15.0 mph 24.2 mph N/A   Clear
2:35 AM 48.7 °F - 7.2 °F 19% 29.84 in 10.0 mi West 13.8 mph 23.0 mph N/A   Clear
2:55 AM 47.8 °F - 7.9 °F 20% 29.84 in 10.0 mi West 13.8 mph 28.8 mph N/A   Clear
3:15 AM 46.6 °F - 8.6 °F 21% 29.84 in 10.0 mi West 18.4 mph 26.5 mph N/A   Clear
3:35 AM 46.9 °F - 8.1 °F 21% 29.84 in 10.0 mi West 16.1 mph 32.2 mph N/A   Clear
3:55 AM 46.0 °F 39.3 °F 8.4 °F 22% 29.85 in 10.0 mi West 16.1 mph 35.7 mph N/A   Clear
4:15 AM 45.7 °F 36.9 °F 8.6 °F 22% 29.86 in 10.0 mi West 25.3 mph 32.2 mph N/A   Clear
4:35 AM 45.5 °F 39.2 °F 8.8 °F 22% 29.85 in 10.0 mi West 13.8 mph 26.5 mph N/A   Scattered Clouds
4:55 AM 44.4 °F 36.9 °F 9.5 °F 24% 29.85 in 10.0 mi West 17.3 mph 23.0 mph N/A   Scattered Clouds
5:15 AM 43.7 °F 38.1 °F 10.4 °F 26% 29.85 in 10.0 mi WSW 10.4 mph 20.7 mph N/A   Mostly Cloudy
5:35 AM 43.7 °F 36.6 °F 10.9 °F 26% 29.85 in 10.0 mi WSW 15.0 mph 21.9 mph N/A   Overcast
5:55 AM 43.3 °F 35.2 °F 11.7 °F 28% 29.86 in 10.0 mi WSW 18.4 mph 23.0 mph N/A   Mostly Cloudy
6:15 AM 42.3 °F 32.8 °F 12.9 °F 30% 29.87 in 10.0 mi WSW 23.0 mph 31.1 mph N/A   Mostly Cloudy
6:35 AM 41.2 °F 33.0 °F 17.8 °F 39% 29.88 in 10.0 mi West 16.1 mph 26.5 mph N/A   Mostly Cloudy
6:55 AM 40.5 °F 32.1 °F 18.5 °F 41% 29.88 in 10.0 mi WSW 16.1 mph 28.8 mph N/A   Scattered Clouds
7:15 AM 38.3 °F 30.1 °F 22.6 °F 53% 29.89 in 10.0 mi WSW 13.8 mph 21.9 mph N/A   Overcast
7:35 AM 38.5 °F 29.9 °F 21.6 °F 51% 29.90 in 10.0 mi West 15.0 mph 19.6 mph N/A   Mostly Cloudy
7:55 AM 38.8 °F 30.8 °F 21.9 °F 51% 29.90 in 10.0 mi WSW 13.8 mph 26.5 mph N/A   Overcast
8:15 AM 36.9 °F 26.8 °F 24.6 °F 61% 29.92 in 10.0 mi West 18.4 mph 23.0 mph N/A   Overcast
8:35 AM 36.1 °F 28.2 °F 24.8 °F 63% 29.93 in 10.0 mi WNW 11.5 mph 17.3 mph N/A   Mostly Cloudy
8:55 AM 38.8 °F 29.1 °F 18.5 °F 44% 29.94 in 10.0 mi West 19.6 mph 27.6 mph N/A   Mostly Cloudy
9:15 AM 37.9 °F 28.5 °F 18.3 °F 45% 29.95 in 7.0 mi West 17.3 mph 29.9 mph N/A   Mostly Cloudy
9:35 AM 38.1 °F 27.9 °F 15.6 °F 40% 29.95 in 10.0 mi WSW 20.7 mph 28.8 mph N/A   Mostly Cloudy
9:55 AM 40.1 °F 30.7 °F 12.2 °F 32% 29.96 in 10.0 mi WSW 19.6 mph 32.2 mph N/A   Clear
10:15 AM 40.3 °F 29.3 °F 9.9 °F 29% 29.96 in 10.0 mi WSW 27.6 mph 35.7 mph N/A   Clear
10:35 AM 41.2 °F 31.4 °F 10.2 °F 28% 29.97 in 10.0 mi WSW 23.0 mph 38.0 mph N/A   Clear
10:55 AM 41.9 °F 32.3 °F 9.3 °F 26% 29.97 in 10.0 mi WSW 23.0 mph 35.7 mph N/A   Clear
11:15 AM 42.8 °F 34.0 °F 6.4 °F 22% 29.98 in 10.0 mi WSW 20.7 mph 32.2 mph N/A   Scattered Clouds
11:35 AM 42.8 °F 33.8 °F 5.2 °F 21% 29.99 in 10.0 mi WSW 21.9 mph 32.2 mph N/A   Mostly Cloudy
11:55 AM 41.9 °F 33.7 °F 6.3 °F 23% 30.00 in 10.0 mi West 17.3 mph 29.9 mph N/A   Overcast
12:15 PM 41.5 °F 32.4 °F 9.5 °F 27% 30.01 in 10.0 mi West 20.7 mph 32.2 mph N/A   Overcast
12:35 PM 40.6 °F 31.2 °F 8.4 °F 27% 30.01 in 10.0 mi West 20.7 mph 27.6 mph N/A   Overcast
12:55 PM 39.6 °F 28.7 °F 14.4 °F 36% 30.03 in 10.0 mi West 25.3 mph 36.8 mph N/A   Overcast
1:15 PM 39.0 °F 29.9 °F 10.9 °F 32% 30.03 in 10.0 mi West 17.3 mph 27.6 mph N/A   Overcast
1:35 PM 40.8 °F 30.0 °F 13.6 °F 33% 30.03 in 10.0 mi West 27.6 mph 33.4 mph N/A   Mostly Cloudy
1:55 PM 41.4 °F 32.1 °F 14.0 °F 33% 30.02 in 10.0 mi WSW 20.7 mph 31.1 mph N/A   Scattered Clouds
2:15 PM 45.0 °F 37.9 °F 8.4 °F 23% 30.02 in 10.0 mi WSW 16.1 mph 25.3 mph N/A   Scattered Clouds
2:35 PM 44.8 °F 41.6 °F 7.3 °F 22% 30.02 in 10.0 mi North 5.8 mph 27.6 mph N/A   Overcast
2:55 PM 42.8 °F 38.0 °F 6.3 °F 22% 30.02 in 10.0 mi NNW 8.1 mph - N/A   Overcast
3:15 PM 42.3 °F 33.6 °F 9.5 °F 26% 30.03 in 10.0 mi WSW 19.6 mph 25.3 mph N/A   Overcast
3:35 PM 43.9 °F 37.5 °F 6.6 °F 22% 30.03 in 10.0 mi West 12.7 mph 25.3 mph N/A   Overcast
3:55 PM 44.4 °F 37.2 °F 9.7 °F 24% 30.04 in 10.0 mi West 16.1 mph 27.6 mph N/A   Overcast
4:15 PM 41.9 °F 34.0 °F 11.3 °F 29% 30.06 in 10.0 mi North 16.1 mph 25.3 mph N/A   Overcast
4:35 PM 37.6 °F 28.8 °F 15.3 °F 40% 30.09 in 10.0 mi NE 15.0 mph 18.4 mph N/A   Overcast
4:55 PM 35.6 °F 25.5 °F 15.8 °F 44% 30.12 in 10.0 mi NNE 17.3 mph 25.3 mph N/A   Overcast
5:15 PM 33.8 °F 24.3 °F 15.8 °F 48% 30.15 in 10.0 mi North 13.8 mph 20.7 mph N/A   Overcast
5:35 PM 32.2 °F 23.8 °F 17.8 °F 55% 30.18 in 10.0 mi WNW 10.4 mph 17.3 mph N/A   Overcast
5:55 PM 32.7 °F 29.6 °F 16.9 °F 52% 30.19 in 10.0 mi North 3.5 mph 9.2 mph N/A   Overcast
6:15 PM 32.9 °F 25.3 °F 14.5 °F 47% 30.21 in 10.0 mi NNE 9.2 mph - N/A   Overcast
6:35 PM 32.0 °F 22.5 °F 13.1 °F 46% 30.22 in 10.0 mi NE 12.7 mph - N/A   Overcast
6:55 PM 31.8 °F 23.9 °F 13.6 °F 47% 30.24 in 10.0 mi NNE 9.2 mph - N/A   Overcast
7:15 PM 31.8 °F 25.4 °F 14.0 °F 48% 30.25 in 10.0 mi North 6.9 mph - N/A   Overcast
7:35 PM 30.6 °F 24.7 °F 18.7 °F 61% 30.27 in 10.0 mi North 5.8 mph - N/A   Overcast
7:55 PM 30.6 °F 23.8 °F 14.7 °F 52% 30.28 in 10.0 mi NNE 6.9 mph - N/A   Overcast
8:15 PM 29.8 °F 23.9 °F 14.5 °F 53% 30.29 in 10.0 mi North 5.8 mph - N/A   Overcast
8:35 PM 29.3 °F 22.3 °F 14.0 °F 53% 30.30 in 10.0 mi North 6.9 mph - N/A   Mostly Cloudy
8:55 PM 28.8 °F 25.0 °F 14.4 °F 55% 30.31 in 10.0 mi NE 3.5 mph - N/A   Mostly Cloudy
9:15 PM 28.8 °F 22.6 °F 22.1 °F 76% 30.32 in 10.0 mi ESE 5.8 mph - N/A   Overcast
9:35 PM 28.8 °F 20.2 °F 18.7 °F 66% 30.32 in 10.0 mi East 9.2 mph - N/A   Overcast
9:55 PM 28.8 °F 23.7 °F 18.0 °F 64% 30.33 in 10.0 mi East 4.6 mph - N/A   Overcast
10:15 PM 28.9 °F 21.1 °F 15.8 °F 58% 30.34 in 10.0 mi East 8.1 mph - N/A   Overcast
10:35 PM 28.6 °F 21.5 °F 14.9 °F 57% 30.34 in 10.0 mi East 6.9 mph - N/A   Overcast
10:55 PM 28.4 °F 23.3 °F 15.3 °F 58% 30.34 in 10.0 mi East 4.6 mph - N/A   Overcast
11:15 PM 28.4 °F 23.3 °F 14.9 °F 57% 30.35 in 10.0 mi East 4.6 mph - N/A   Overcast
11:35 PM 28.2 °F 21.0 °F 14.7 °F 57% 30.35 in 10.0 mi East 6.9 mph - N/A   Overcast
11:55 PM 27.9 °F 21.5 °F 14.7 °F 58% 30.35 in 10.0 mi East 5.8 mph - N/A   Overcast